Flight Track Log - Related Links

Times and Time Zones

All times are in EDT time to prevent confusion due to time zone crossing. See the PDT4377 flight status page for this flight to view local times or setup timezone preferences in your user account.

Time Position Orientation Groundspeed Altitude Reporting Facility
EDT Latitude Longitude Course Direction KTS MPH feet Rate Location/Type
Tue 01:38:18 PM 39.8833 -75.2167 57° Northeast 111 128 600  Level Philadelphia TRACON
Tue 01:39:07 PM 39.9000 -75.1833 57° Northeast 127 146 1,900 1,409 Climbing Philadelphia TRACON
Tue 01:40:13 PM 39.9500 -75.1667 14° North 144 166 3,300 1,143 Climbing Philadelphia TRACON
Tue 01:41:13 PM 39.9833 -75.1333 37° Northeast 166 191 4,300 1,143 Climbing Philadelphia TRACON
Tue 01:42:19 PM 40.0167 -75.1833 311° West 168 193 5,700 1,095 Climbing Philadelphia TRACON
Tue 01:43:19 PM 40.0000 -75.2333 246° West 161 185 6,600 1,100 Climbing Philadelphia TRACON
Tue 01:44:19 PM 39.9833 -75.2833 247° West 155 178 7,900 750 Climbing Philadelphia TRACON
Tue 01:46:39 PM 39.9408 -75.4169 248° West 169 194 9,100 360 Climbing New York Center
Tue 01:47:39 PM 39.9214 -75.4833 249° West 192 221 9,100  Level New York Center
Tue 01:48:39 PM 39.8994 -75.5603 250° West 210 242 9,100 600 Level New York Center
Tue 01:49:39 PM 39.8864 -75.6269 256° West 197 227 10,300 1,200 Climbing New York Center
Tue 01:50:39 PM 39.8678 -75.6717 242° Southwest 163 188 11,500 1,050 Climbing New York Center
Tue 01:51:39 PM 39.8453 -75.7133 235° Southwest 143 165 12,400 850 Climbing New York Center
Tue 01:52:39 PM 39.8208 -75.7494 229° Southwest 143 165 13,200 900 Climbing New York Center
Tue 01:53:39 PM 39.7961 -75.7936 234° Southwest 149 171 14,200 900 Climbing New York Center
Tue 01:54:39 PM 39.7733 -75.8381 236° Southwest 149 171 15,000 800 Climbing New York Center
Tue 01:55:39 PM 39.7508 -75.8769 233° Southwest 144 166 15,800 750 Climbing New York Center
Tue 01:56:39 PM 39.7281 -75.9211 236° Southwest 149 171 16,500 700 Climbing New York Center
Tue 01:57:39 PM 39.7053 -75.9600 233° Southwest 149 171 17,200 694 Climbing New York Center
Tue 01:58:40 PM 39.6764 -76.0011 228° Southwest 149 171 17,900 230 Climbing New York Center
Tue 02:01:08 PM 39.6061 -76.1328 235° Southwest 165 190 18,000 29 Climbing Washington Center
Tue 02:02:09 PM 39.5789 -76.1892 238° Southwest 182 209 18,000  Level Washington Center
Tue 02:03:09 PM 39.5472 -76.2481 235° Southwest 193 222 18,000  Level Washington Center
Tue 02:04:09 PM 39.5156 -76.3072 235° Southwest 198 228 18,000  Level Washington Center
Tue 02:05:10 PM 39.4819 -76.3658 233° Southwest 198 228 18,000  Level Washington Center
Tue 02:06:08 PM 39.4442 -76.4219 229° Southwest 203 234 18,000  Level Washington Center
Tue 02:07:08 PM 39.4083 -76.4781 230° Southwest 203 234 18,000  Level Washington Center
Tue 02:08:09 PM 39.3683 -76.5311 226° Southwest 210 242 18,000  Level Washington Center
Tue 02:09:11 PM 39.3303 -76.5869 229° Southwest 215 247 18,000  Level Washington Center
Tue 02:10:08 PM 39.3028 -76.6350 234° Southwest 210 242 18,000  Level Washington Center
Tue 02:10:45 PM 39.2833 -76.6833 243° Southwest 200 230 18,000  Level Potomac TRACON
Tue 02:11:39 PM 39.2500 -76.7333 229° Southwest 222 255 18,000  Level Potomac TRACON
Tue 02:12:39 PM 39.2167 -76.7833 229° Southwest 221 254 18,000  Level Potomac TRACON
Tue 02:13:33 PM 39.1833 -76.8333 229° Southwest 192 221 18,000  Level Potomac TRACON
Tue 02:14:27 PM 39.1500 -76.8667 218° Southwest 185 213 18,000  Level Potomac TRACON
Tue 02:15:08 PM 39.1333 -76.9056 241° Southwest 195 224 18,000  Level Washington Center
Tue 02:16:08 PM 39.0994 -76.9583 230° Southwest 195 224 18,000  Level Washington Center
Tue 02:17:10 PM 39.0675 -77.0111 232° Southwest 195 224 18,000  Level Washington Center
Tue 02:18:10 PM 39.0336 -77.0614 229° Southwest 195 224 18,000 -51 Level Washington Center
Tue 02:19:08 PM 38.9894 -77.1006 215° Southwest 195 224 17,900 -555 Descending Washington Center
Tue 02:20:09 PM 38.9306 -77.1286 200° South 205 236 16,900 -1,079 Descending Washington Center
Tue 02:21:27 PM 38.8667 -77.1833 214° Southwest 205 236 15,400 -909 Descending Potomac TRACON
Tue 02:22:21 PM 38.8333 -77.2500 237° Southwest 190 219 14,900 -789 Descending Potomac TRACON
Tue 02:23:21 PM 38.8167 -77.3000 247° West 181 208 13,900 -1,050 Descending Potomac TRACON
Tue 02:24:21 PM 38.7667 -77.3500 218° Southwest 200 230 12,800 -950 Descending Potomac TRACON
Tue 02:25:21 PM 38.7333 -77.4000 229° Southwest 185 213 12,000 -400 Descending Potomac TRACON
Tue 02:26:21 PM 38.7167 -77.4500 247° West 184 212 12,000  Level Potomac TRACON
Tue 02:27:21 PM 38.6833 -77.5000 230° Southwest 186 214 12,000 -450 Level Potomac TRACON
Tue 02:28:21 PM 38.6500 -77.5500 230° Southwest 196 226 11,100 -1,100 Descending Potomac TRACON
Tue 02:29:21 PM 38.6167 -77.6000 230° Southwest 170 196 9,800 -1,300 Descending Potomac TRACON
Tue 02:30:21 PM 38.6000 -77.6667 252° West 181 208 8,500 -850 Descending Potomac TRACON
Tue 02:31:21 PM 38.5667 -77.7167 230° Southwest 178 205 8,100 -200 Descending Potomac TRACON
Tue 02:32:21 PM 38.5333 -77.7667 230° Southwest 179 206 8,100  Level Potomac TRACON
Tue 02:33:21 PM 38.5000 -77.8167 230° Southwest 186 214 8,100 -50 Level Potomac TRACON
Tue 02:34:21 PM 38.4667 -77.8667 230° Southwest 188 216 8,000  Descending Potomac TRACON
Tue 02:35:22 PM 38.4333 -77.9167 230° Southwest 194 223 8,100 50 Climbing Potomac TRACON
Tue 02:36:21 PM 38.4167 -77.9833 252° West 192 221 8,100 -300 Level Potomac TRACON
Tue 02:37:22 PM 38.3833 -78.0333 230° Southwest 196 226 7,500 -850 Descending Potomac TRACON
Tue 02:38:21 PM 38.3500 -78.0833 230° Southwest 184 212 6,400 -1,053 Descending Potomac TRACON
Tue 02:39:16 PM 38.3167 -78.1333 230° Southwest 190 219 5,500 -939 Descending Potomac TRACON
Tue 02:40:16 PM 38.2833 -78.1833 230° Southwest 197 227 4,600 -950 Descending Potomac TRACON
Tue 02:41:16 PM 38.2333 -78.2167 208° Southwest 231 266 3,600 -650 Descending Potomac TRACON
Tue 02:42:16 PM 38.1833 -78.2667 218° Southwest 237 273 3,300 -150 Descending Potomac TRACON
Tue 02:43:16 PM 38.1333 -78.3167 218° Southwest 230 265 3,300  Level Potomac TRACON
Tue 02:44:16 PM 38.0833 -78.3667 218° Southwest 225 259 3,300  Level Potomac TRACON
Tue 02:45:16 PM 38.0333 -78.4167 218° Southwest 230 265 3,300  Level Potomac TRACON
Tue 02:46:16 PM 37.9833 -78.4667 218° Southwest 229 264 3,300  Level Potomac TRACON
Tue 02:47:16 PM 37.9167 -78.5000 202° Southwest 213 245 3,300  Level Potomac TRACON
Tue 02:48:17 PM 37.9333 -78.5667 288° West 255 293 3,300  Level Potomac TRACON
Tue 02:49:17 PM 37.9833 -78.5333 28° Northeast 207 238 3,300 -200 Level Potomac TRACON
Tue 02:50:17 PM 38.0333 -78.5000 28° Northeast 199 229 2,900 -600 Descending Potomac TRACON
Tue 02:51:17 PM 38.0667 -78.4833 21° North 125 144 2,100 -750 Descending Potomac TRACON
Tue 02:52:17 PM 38.1000 -78.4667 21° North 106 122 1,400 -700 Descending Potomac TRACON

Login

Don't have an account? Register now (free) for customized features, flight alerts, and more!